| time (UTC) | temp C | wind direction | speed KPH | gust KPH | rain 1hr cm | rain 24hr cm | rain mn cm | humidity % | barometer mb |
| 20260506221552 | 15 | 345 | 9.7 | 19.3 | 0.00 | 0.03 | 0.03 | 85 | 1016.7 |
| 20260506220051 | 15 | 325 | 14.5 | 24.1 | 0.00 | 0.03 | 0.03 | 85 | 1016.8 |
| 20260506214555 | 15 | 23 | 12.9 | 20.9 | 0.00 | 0.03 | 0.03 | 85 | 1016.9 |
| 20260506213111 | 15 | 35 | 9.7 | 22.5 | 0.00 | 0.03 | 0.03 | 86 | 1017.0 |
| 20260506211552 | 14 | 339 | 12.9 | 24.1 | 0.00 | 0.03 | 0.03 | 87 | 1017.5 |
| 20260506210055 | 14 | 337 | 12.9 | 22.5 | 0.00 | 0.03 | 0.03 | 88 | 1017.3 |
| 20260506204553 | 13 | 355 | 12.9 | 22.5 | 0.00 | 0.03 | 0.03 | 88 | 1017.3 |
| 20260506203047 | 14 | 17 | 11.3 | 20.9 | 0.00 | 0.03 | 0.03 | 88 | 1017.5 |
| 20260506201553 | 14 | 336 | 14.5 | 24.1 | 0.00 | 0.03 | 0.03 | 89 | 1017.6 |
| 20260506200052 | 13 | 309 | 11.3 | 24.1 | 0.00 | 0.03 | 0.03 | 89 | 1017.3 |
| 20260506194555 | 13 | 338 | 12.9 | 22.5 | 0.00 | 0.03 | 0.03 | 89 | 1017.7 |
| 20260506193100 | 13 | 321 | 12.9 | 27.4 | 0.00 | 0.03 | 0.03 | 89 | 1017.8 |
| 20260506191551 | 13 | 5 | 14.5 | 22.5 | 0.00 | 0.03 | 0.03 | 89 | 1017.6 |
| 20260506190051 | 13 | 360 | 12.9 | 22.5 | 0.00 | 0.03 | 0.03 | 90 | 1017.9 |
| 20260506184549 | 13 | 325 | 11.3 | 22.5 | 0.00 | 0.03 | 0.03 | 90 | 1018.0 |
| 20260506183048 | 13 | 350 | 16.1 | 27.4 | 0.00 | 0.03 | 0.03 | 89 | 1017.9 |
| 20260506181549 | 13 | 5 | 16.1 | 24.1 | 0.00 | 0.03 | 0.03 | 91 | 1017.9 |
| 20260506180059 | 12 | 346 | 11.3 | 25.7 | 0.00 | 0.03 | 0.03 | 91 | 1017.9 |
| 20260506174550 | 12 | 11 | 16.1 | 27.4 | 0.00 | 0.03 | 0.03 | 90 | 1017.7 |
| 20260506173056 | 13 | 348 | 16.1 | 29.0 | 0.00 | 0.03 | 0.03 | 90 | 1017.6 |
| 20260506171550 | 13 | 339 | 14.5 | 30.6 | 0.00 | 0.03 | 0.03 | 91 | 1017.6 |
| 20260506170103 | 13 | 336 | 17.7 | 27.4 | 0.00 | 0.03 | 0.03 | 91 | 1017.5 |
| 20260506164556 | 13 | 5 | 12.9 | 20.9 | 0.00 | 0.03 | 0.03 | 93 | 1017.3 |
| 20260506163109 | 13 | 355 | 9.7 | 17.7 | 0.00 | 0.03 | 0.03 | 93 | 1017.4 |
| 20260506161548 | 12 | 13 | 9.7 | 17.7 | 0.00 | 0.03 | 0.03 | 94 | 1017.0 |
| 20260506160051 | 12 | 146 | 22.5 | 43.5 | 0.00 | 0.03 | 0.03 | 95 | 1016.5 |
| 20260506154608 | 12 | 108 | 19.3 | 37.0 | 0.03 | 0.03 | 0.03 | 95 | 1016.1 |
| 20260506153059 | 11 | 98 | 6.4 | 22.5 | 0.03 | 0.03 | 0.03 | 94 | 1016.7 |
| 20260506151557 | 11 | 323 | 9.7 | 19.3 | 0.03 | 0.03 | 0.03 | 95 | 1018.3 |
| 20260506150047 | 12 | 360 | 14.5 | 22.5 | 0.00 | 0.00 | 0.00 | 94 | 1017.7 |
| 20260506144549 | 12 | 19 | 14.5 | 29.0 | 0.00 | 0.00 | 0.00 | 94 | 1017.8 |
| 20260506143059 | 12 | 348 | 16.1 | 24.1 | 0.00 | 0.00 | 0.00 | 94 | 1017.5 |
| 20260506141550 | 13 | 360 | 19.3 | 32.2 | 0.00 | 0.00 | 0.00 | 91 | 1017.3 |
| 20260506140054 | 14 | 334 | 12.9 | 25.7 | 0.00 | 0.00 | 0.00 | 89 | 1017.1 |
| 20260506134553 | 15 | 321 | 14.5 | 27.4 | 0.00 | 0.00 | 0.00 | 89 | 1016.6 |
| 20260506133050 | 15 | 13 | 16.1 | 27.4 | 0.00 | 0.00 | 0.00 | 88 | 1015.3 |
| 20260506131554 | 15 | 26 | 9.7 | 29.0 | 0.00 | 0.00 | 0.00 | 88 | 1015.0 |
| 20260506130051 | 15 | 18 | 17.7 | 30.6 | 0.00 | 0.00 | 0.00 | 87 | 1015.0 |
| 20260506124549 | 16 | 5 | 14.5 | 30.6 | 0.00 | 0.00 | 0.00 | 86 | 1014.6 |
| 20260506123049 | 16 | 360 | 14.5 | 22.5 | 0.00 | 0.00 | 0.00 | 86 | 1014.2 |
| 20260506121547 | 16 | 5 | 12.9 | 19.3 | 0.00 | 0.00 | 0.00 | 85 | 1014.2 |
| 20260506120057 | 16 | 28 | 14.5 | 22.5 | 0.00 | 0.00 | 0.00 | 86 | 1013.9 |
| 20260506114558 | 17 | 5 | 11.3 | 19.3 | 0.00 | 0.00 | 0.00 | 85 | 1013.7 |
| 20260506113053 | 17 | 355 | 4.8 | 16.1 | 0.00 | 0.00 | 0.00 | 86 | 1014.0 |
| 20260506111548 | 17 | 42 | 6.4 | 17.7 | 0.00 | 0.00 | 0.00 | 86 | 1013.8 |
| 20260506110055 | 18 | 24 | 8.0 | 16.1 | 0.00 | 0.00 | 0.00 | 86 | 1013.8 |
| 20260506104550 | 18 | 12 | 11.3 | 24.1 | 0.00 | 0.00 | 0.00 | 86 | 1013.6 |
| 20260506103049 | 18 | 13 | 9.7 | 17.7 | 0.00 | 0.00 | 0.00 | 86 | 1013.3 |
| 20260506101551 | 19 | 22 | 6.4 | 14.5 | 0.00 | 0.00 | 0.00 | 88 | 1013.4 |
| 20260506100048 | 19 | 34 | 8.0 | 16.1 | 0.00 | 0.00 | 0.00 | 90 | 1013.4 |
| 20260506094610 | 20 | 15 | 9.7 | 17.7 | 0.00 | 0.00 | 0.00 | 90 | 1013.0 |
| 20260506093056 | 21 | 38 | 8.0 | 14.5 | 0.00 | 0.00 | 0.00 | 93 | 1012.7 |
| 20260506091556 | 22 | 62 | 4.8 | 8.0 | 0.00 | 0.00 | 0.00 | 92 | 1012.6 |
| 20260506090051 | 22 | 126 | 1.6 | 4.8 | 0.00 | 0.00 | 0.00 | 94 | 1012.8 |
| 20260506084554 | 22 | 126 | 3.2 | 6.4 | 0.00 | 0.00 | 0.00 | 94 | 1012.5 |
| 20260506083102 | 23 | 126 | 6.4 | 12.9 | 0.00 | 0.00 | 0.00 | 94 | 1012.4 |
| 20260506081551 | 23 | 132 | 6.4 | 9.7 | 0.00 | 0.00 | 0.00 | 94 | 1012.3 |
| 20260506073053 | 23 | 150 | 3.2 | 9.7 | 0.00 | 0.00 | 0.00 | 93 | 1012.6 |
| 20260506071549 | 23 | 199 | 1.6 | 4.8 | 0.00 | 0.00 | 0.00 | 92 | 1012.8 |
| 20260506061552 | 23 | 59 | 4.8 | 9.7 | 0.00 | 0.00 | 0.00 | 92 | 1012.5 |
| 20260506044550 | 23 | 173 | 3.2 | 14.5 | 0.00 | 0.00 | 0.00 | 90 | 1011.7 |
| 20260506043042 | 23 | 179 | 8.0 | 16.1 | 0.00 | 0.00 | 0.00 | 90 | 1011.6 |
| 20260506041550 | 23 | 156 | 8.0 | 16.1 | 0.00 | 0.00 | 0.00 | 90 | 1011.6 |
| 20260506040059 | 22 | 146 | 6.4 | 11.3 | 0.00 | 0.00 | 0.00 | 90 | 1011.7 |
| 20260506034558 | 22 | 148 | 6.4 | 9.7 | 0.00 | 0.00 | 0.00 | 90 | 1011.7 |
| 20260506033047 | 22 | 147 | 6.4 | 14.5 | 0.00 | 0.00 | 0.00 | 89 | 1011.3 |
| 20260506031557 | 22 | 158 | 11.3 | 16.1 | 0.00 | 0.00 | 0.00 | 89 | 1011.0 |
| 20260506030048 | 23 | 141 | 8.0 | 12.9 | 0.00 | 0.00 | 0.00 | 89 | 1011.1 |
| 20260506024543 | 23 | 126 | 6.4 | 11.3 | 0.00 | 0.00 | 0.00 | 87 | 1011.1 |
| 20260506023047 | 23 | 146 | 4.8 | 8.0 | 0.00 | 0.00 | 0.00 | 86 | 1010.8 |
| 20260506021543 | 24 | 153 | 6.4 | 9.7 | 0.00 | 0.00 | 0.00 | 85 | 1010.2 |
| 20260506020049 | 25 | 157 | 4.8 | 14.5 | 0.00 | 0.00 | 0.00 | 83 | 1010.2 |
| 20260506014549 | 25 | 166 | 6.4 | 14.5 | 0.00 | 0.00 | 0.00 | 82 | 1009.8 |
| 20260506013055 | 25 | 164 | 4.8 | 12.9 | 0.00 | 0.00 | 0.00 | 80 | 1009.6 |
| 20260506011556 | 26 | 159 | 6.4 | 12.9 | 0.00 | 0.00 | 0.00 | 79 | 1009.6 |
| 20260506010056 | 26 | 157 | 6.4 | 11.3 | 0.00 | 0.00 | 0.00 | 77 | 1009.3 |
| 20260506004553 | 27 | 177 | 6.4 | 16.1 | 0.00 | 0.00 | 0.00 | 75 | 1009.3 |
| 20260506003049 | 27 | 189 | 4.8 | 11.3 | 0.00 | 0.00 | 0.00 | 73 | 1009.2 |
| 20260506001549 | 28 | 159 | 3.2 | 17.7 | 0.00 | 0.00 | 0.00 | 71 | 1009.2 |
| 20260506000050 | 28 | 161 | 9.7 | 17.7 | 0.00 | 0.00 | 0.00 | 70 | 1009.3 |
| 20260505234559 | 28 | 176 | 6.4 | 16.1 | 0.00 | 0.00 | 0.00 | 68 | 1009.2 |
| 20260505233103 | 28 | 198 | 6.4 | 14.5 | 0.00 | 0.00 | 0.00 | 70 | 1009.3 |
| 20260505231555 | 30 | 184 | 3.2 | 14.5 | 0.00 | 0.00 | 0.00 | 66 | 1009.3 |
| 20260505230047 | 30 | 0 | 1.6 | 12.9 | 0.00 | 0.00 | 0.00 | 66 | 1009.2 |
| 20260505224549 | 30 | 178 | 3.2 | 12.9 | 0.00 | 0.00 | 0.00 | 64 | 1009.1 |
| 20260505223051 | 30 | 178 | 3.2 | 16.1 | 0.00 | 0.00 | 0.00 | 67 | 1009.3 |